This demonstration page uses our WeatherBlox Daily Observations layout. Learn more.

Left ArrowRight Arrow

38.20091, -84.87328

Hourly Observations for July 30, 2018

Temp ( °F °C ) Dew Point ( °F °C ) Humidity (%) Winds ( mph kmh ) Pressure ( in mb ) Visibility ( mi km ) Precip ( " mm )
12:53 am 00:53 Clear 73 22.8 63 17.2 71 71 Calm 30.04 1017 10 16 0.00 0.00
1:53 am 01:53 Partly Cloudy 70 21.1 65 18.3 84 84 NNW 5 7 30.04 1017 10 16 0.00 0.03
2:53 am 02:53 Clear 70 21.1 63 17.2 79 79 Calm 30.02 1017 10 16 0.00 0.00
4:53 am 04:53 Mostly Cloudy 69 20.6 63 17.2 81 81 Calm 30.01 1016 10 16 0.00 0.00
5:53 am 05:53 Clear 69 20.6 63 17.2 81 81 NNW 3 6 30.01 1016 10 16 0.00 0.00
6:53 am 06:53 Mostly Cloudy 68 20 63 17.2 84 84 ENE 5 7 29.99 1016 10 16 0.00 0.00
7:53 am 07:53 Mostly Cloudy 70 21.1 62 16.7 76 76 VRB 3 6 30.00 1016 10 16 0.00 0.00
8:53 am 08:53 Sunny 70 21.1 63 17.2 79 79 ENE 7 11 30.00 1016 10 16 0.00 0.00
9:53 am 09:53 Sunny 75 23.9 64 17.8 69 69 ESE 7 11 29.99 1016 10 16 0.00 0.00
10:53 am 10:53 Mostly Cloudy 77 25 64 17.8 64 64 ENE 7 11 30.01 1016 10 16 0.00 0.00
11:53 am 11:53 Mostly Sunny 78 25.6 64 17.8 62 62 ENE 7 11 30.01 1016 10 16 0.00 0.00
12:53 pm 12:53 Mostly Sunny 81 27.2 66 18.9 61 61 ENE 8 13 29.99 1016 10 16 0.00 0.00
1:53 pm 13:53 Mostly Sunny 82 27.8 67 19.4 60 60 ENE 7 11 29.98 1015 10 16 0.00 0.00
2:53 pm 14:53 Sunny 83 28.3 68 20 61 61 ESE 7 11 29.98 1015 10 16 0.00 0.00
3:53 pm 15:53 Sunny 84 28.9 68 20 59 59 Calm 29.97 1015 10 16 0.00 0.00
4:53 pm 16:53 Cloudy 82 27.8 67 19.4 60 60 NNW 6 9 29.96 1015 10 16 0.00 0.00
5:53 pm 17:53 Partly Cloudy 79 26.1 69 20.6 72 72 N 8 13 29.95 1014 10 16 0.00 0.03
6:53 pm 18:53 Partly Cloudy 76 24.4 68 20 77 77 NNE 5 7 29.95 1014 10 16 0.00 0.00
7:53 pm 19:53 Partly Cloudy 75 23.9 68 20 79 79 NNE 5 7 29.96 1014 10 16 0.00 0.00
8:53 pm 20:53 Cloudy 74 23.3 68 20 82 82 ENE 3 6 29.95 1014 10 16 0.00 0.00
9:53 pm 21:53 Cloudy 74 23.3 69 20.6 85 85 ENE 5 7 29.95 1014 10 16 0.00 0.00
10:53 pm 22:53 Cloudy 74 23.3 69 20.6 85 85 N 3 6 29.96 1015 10 16 0.00 0.00
11:53 pm 23:53 Cloudy 73 22.8 69 20.6 87 87 N 5 7 29.96 1015 10 16 0.00 0.00

Powered by AerisWeather